Starlink 32399

operational
NORAD ID: 61627 Int'l Des: 2024-191 Owner: SPXS Country: US Constellation: starlink
LEOCIRCULAR

关于 Starlink 32399

正在加载描述...

实时位置

正在加载3D地球...

即将过境

高度历史

Altitude vs Time

uPlot chart will show altitude changes over time

两行轨道根数

1 61627U 24191G 25259.11713956 .00001160 00000-0 51651-4 0 9995
2 61627 43.0035 52.9573 0001354 276.4233 83.6465 15.27586588 50923
Epoch: Sep 16, 2025 • Age: 10 hours

当前状态

高度 483.2 km
速度 7.63 km/s
星下点 -1.79°S, 41.4°E
发射日期 Oct 23, 2024
运行时间 0.8 years
类型 internet

技术详情

分类 Payload
质量 730.00 kg
干质量 700.00 kg
总质量 730.00 kg
长度 0.30 m
直径 4.10 m
跨度 29.00 m
形状 Box + pan
制造商 SPXS
平台类型 Starlink V2M
阶段状态 In Orbit
所有者/国家 SPXS/US

大型星座

Loading constellations...